Regional Weather Roundup
Issued by NWS

Home | Current Version | Previous Version | Graphics & Text | Print | Product List | Glossary On
Versions: 1 2 3 4 5 6 7 8 9 10 11 12 13 14 15 16 17 18 19 20 21 22 23 24 25 26 27
000
ASUS45 KCYS 252310
RWRWY

WYOMING REGIONAL WEATHER ROUNDUP
NATIONAL WEATHER SERVICE CHEYENNE WY
500 PM MDT SUN JUN 25 2017

NOTE:  "FAIR" INDICATES FEW OR NO CLOUDS BELOW 12,000 FEET
WITH NO SIGNIFICANT WEATHER AND/OR OBSTRUCTIONS TO VISIBILITY.

WYZ001-260000-
YELLOWSTONE NATIONAL PARK

CITY           SKY/WX    TMP DP  RH WIND       PRES   REMARKS
LK YELLOWSTONE   N/A     64  35  34 VRB3      30.43F
W YELLOWSTONE  NOT AVBL

$$
WYZ002>013-054>058-071-098>099-260000-
NORTHERN WYOMING

CITY           SKY/WX    TMP DP  RH WIND       PRES   REMARKS
JACKSON        SUNNY     79  36  21 VRB6      30.32F
CODY           FAIR      75  37  25 N7G16     30.29S
GREYBULL       FAIR      83  28  13 NW18      30.20F
WORLAND        FAIR      81  34  18 N10       30.22F
SHERIDAN       FAIR      78  39  24 N10       30.26F
BUFFALO        FAIR      74  37  26 N9        30.32S
GILLETTE       FAIR      76  30  18 NW14G23   30.26F
NEWCASTLE      FAIR      73  32  21 NW8G16    30.25S

$$
WYZ014>020-022>026-101>103-260000-
CENTRAL WYOMING

CITY           SKY/WX    TMP DP  RH WIND       PRES   REMARKS
BIG PINEY      FAIR      77  36  22 W6        30.36F
PINEDALE       FAIR      75  32  20 N9G16     30.37F
DUBOIS         FAIR      73  28  19 NW14G21   30.35S
LANDER         FAIR      78  38  23 E8        30.26F
RIVERTON       FAIR      78  33  19 VRB7      30.27F
CASPER         FAIR      80  30  16 N6        30.27F
DOUGLAS        FAIR      79  34  19 W8        30.27F

$$
WYZ021-027>030-104>119-260000-
SOUTHERN WYOMING

CITY           SKY/WX    TMP DP  RH WIND       PRES   REMARKS
EVANSTON       FAIR      80  30  16 VRB5      30.36F
KEMMERER         N/A     77  30  18 W5        30.38F
FORT BRIDGER   FAIR      81  22  11 N6        30.38F
ROCK SPRINGS   FAIR      79  23  12 VRB5      30.33F
DIXON          FAIR      82  23  11 CALM      30.33S
RAWLINS        FAIR      77  22  13 N10       30.35S
SARATOGA       FAIR      77  21  12 N13       30.37S
LARAMIE        FAIR      73  28  18 N16G29    30.35F
CHEYENNE       FAIR      68  47  46 VRB5      30.33F
TORRINGTON     FAIR      79  39  23 SW8       30.23F
PINE BLUFFS    FAIR      68  50  52 E3        30.31F

$$




USA.gov is the U.S. government's official web portal to all federal, state and local government web resources and services.